| Date | Time | Temp. (oF) | Dew Point (oF) | Rel. Hum. (%) | Press. (in.) | Wind Dir. | Wind Speed (mph) | Hourly Rainfall (in.) |
|
|---|---|---|---|---|---|---|---|---|---|
| 1 | 04/28 | 00:00 | 53 | 47 | 81 | 29.86 | N | 0 | 0.00 |
| 2 | 04/27 | 23:00 | 52 | 46 | 81 | 29.87 | S | 0 | 0.00 |
| 3 | 04/27 | 22:00 | 52 | 46 | 80 | 29.85 | SSW | 1 | 0.00 |
| 4 | 04/27 | 21:00 | 52 | 45 | 79 | 29.84 | S | 0 | 0.00 |
| 5 | 04/27 | 20:00 | 52 | 45 | 77 | 29.84 | S | 0 | 0.00 |
| 6 | 04/27 | 19:00 | 52 | 44 | 76 | 29.84 | S | 4 | 0.00 |
| 7 | 04/27 | 18:00 | 52 | 44 | 76 | 29.83 | S | 3 | 0.00 |
| 8 | 04/27 | 17:00 | 52 | 44 | 76 | 29.84 | SE | 1 | 0.00 |
| 9 | 04/27 | 16:00 | 52 | 45 | 77 | 29.84 | SE | 0 | 0.00 |
| 10 | 04/27 | 15:00 | 52 | 44 | 76 | 29.83 | SE | 4 | 0.00 |
| 11 | 04/27 | 14:00 | 52 | 45 | 79 | 29.84 | SE | 7 | 0.00 |
| 12 | 04/27 | 13:00 | 52 | 45 | 78 | 29.84 | SE | 4 | 0.00 |
| 13 | 04/27 | 12:00 | 50 | 44 | 80 | 29.85 | S | 4 | 0.00 |
| 14 | 04/27 | 11:00 | 49 | 44 | 86 | 29.87 | SE | 7 | 0.00 |
| 15 | 04/27 | 10:00 | 49 | 45 | 87 | 29.86 | ESE | 4 | 0.00 |
| 16 | 04/27 | 09:00 | 50 | 45 | 85 | 29.86 | SSE | 1 | 0.00 |
| 17 | 04/27 | 08:00 | 50 | 45 | 86 | 29.85 | SE | 4 | 0.00 |
| 18 | 04/27 | 07:00 | 50 | 46 | 87 | 29.84 | SE | 5 | 0.00 |
| 19 | 04/27 | 06:00 | 51 | 46 | 85 | 29.81 | SE | 4 | 0.00 |
| 20 | 04/27 | 05:00 | 52 | 43 | 73 | 29.80 | ESE | 5 | 0.00 |
| 21 | 04/27 | 04:00 | 53 | 42 | 67 | 29.79 | NE | 10 | 0.00 |
| 22 | 04/27 | 03:00 | 54 | 42 | 64 | 29.77 | NE | 10 | 0.00 |
| 23 | 04/27 | 02:00 | 56 | 43 | 63 | 29.75 | NNE | 5 | 0.00 |
| 24 | 04/27 | 01:00 | 58 | 47 | 68 | 29.75 | E | 2 | 0.00 |